User: anonymous   Login
Location: Oshawa
(43.9000°N, 78.8670°W)
Time: 00:46:03
(UTC-04:00)
Language:

Iridium 46 - Orbit

View from above orbital plane
View from above orbital plane
View from above satellite
View from above satellite

Ground track
Ground track

The orbit data is extracted from the following two-line orbital elements,

1 24905U 97043C   16146.24071832  .00000246  00000-0  80892-4 0  9991
2 24905  86.3991  58.1495 0002185  86.6752 273.4694 14.34217716982224
Epoch (UTC): 25 May 2016 05:46:38
Eccentricity: 0.0002185
inclination: 86.3991°
perigee height: 776 km
apogee height: 779 km
right ascension of ascending node: 58.1495°
argument of perigee: 86.6752°
revolutions per day: 14.34217716
mean anomaly at epoch: 273.4694°
orbit number at epoch: 98222

The dashed part of the orbit path shows where the satellite is in the earth's shadow,  

DLR